Time,TemperatureF,DewpointF,PressureIn,WindDirection,WindDirectionDegrees,WindSpeedMPH,WindSpeedGustMPH,Humidity,HourlyPrecipIn,Conditions,Clouds,dailyrainin,SolarRadiationWatts/m^2,SoftwareType,DateUTC
2013-07-06 00:02:00,41.0,37.0,-100.00,NW,315,4.0,6.0,86,0.00,,,0.00,2.000000,,2013-07-06 08:02:00,
2013-07-06 00:11:00,41.0,37.0,-100.00,NW,315,4.0,6.0,86,0.00,,,0.00,2.000000,,2013-07-06 08:11:00,
2013-07-06 00:21:00,41.0,37.0,-100.00,NW,315,4.0,6.0,86,0.00,,,0.00,2.000000,,2013-07-06 08:21:00,
2013-07-06 00:33:00,41.0,37.0,-100.00,North,359,1.0,5.0,86,0.00,,,0.00,0.000000,,2013-07-06 08:33:00,
2013-07-06 00:54:00,41.0,37.0,-100.00,North,359,1.0,5.0,86,0.00,,,0.00,0.000000,,2013-07-06 08:54:00,
2013-07-06 01:02:00,41.0,37.0,-100.00,North,359,1.0,5.0,86,0.00,,,0.00,0.000000,,2013-07-06 09:02:00,
2013-07-06 01:11:00,41.0,37.0,-100.00,North,359,1.0,5.0,86,0.00,,,0.00,0.000000,,2013-07-06 09:11:00,
2013-07-06 01:22:00,41.0,37.0,-100.00,North,359,1.0,5.0,86,0.00,,,0.00,0.000000,,2013-07-06 09:22:00,
2013-07-06 01:33:00,41.0,37.0,-100.00,NNE,14,2.0,3.0,87,0.00,,,-99.99,0.000000,,2013-07-06 09:33:00,
2013-07-06 02:02:00,41.0,37.0,-100.00,NNE,14,2.0,3.0,87,0.00,,,-99.99,0.000000,,2013-07-06 10:02:00,
2013-07-06 02:11:00,41.0,37.0,-100.00,NNE,14,2.0,3.0,87,0.00,,,-99.99,0.000000,,2013-07-06 10:11:00,
2013-07-06 02:22:00,41.0,37.0,-100.00,NNE,14,2.0,3.0,87,0.00,,,-99.99,0.000000,,2013-07-06 10:22:00,
2013-07-06 02:53:00,41.0,37.0,-100.00,North,351,2.0,4.0,86,0.02,,,0.01,0.000000,,2013-07-06 10:53:00,
2013-07-06 03:01:00,41.0,37.0,-100.00,North,351,2.0,4.0,86,0.02,,,0.01,0.000000,,2013-07-06 11:01:00,
2013-07-06 03:11:00,41.0,37.0,-100.00,North,351,2.0,4.0,86,0.02,,,0.01,0.000000,,2013-07-06 11:11:00,
2013-07-06 03:21:00,41.0,37.0,-100.00,North,351,2.0,4.0,86,0.02,,,0.01,0.000000,,2013-07-06 11:21:00,
2013-07-06 03:32:00,41.0,37.0,-100.00,North,351,2.0,4.0,86,0.02,,,0.01,0.000000,,2013-07-06 11:32:00,
2013-07-06 03:33:00,41.0,38.0,-100.00,North,356,2.0,4.0,88,-99.99,,,-99.99,0.000000,,2013-07-06 11:33:00,
2013-07-06 03:53:00,41.0,38.0,-100.00,North,356,2.0,4.0,88,-99.99,,,-99.99,0.000000,,2013-07-06 11:53:00,
2013-07-06 04:01:00,41.0,38.0,-100.00,North,356,2.0,4.0,88,-99.99,,,-99.99,0.000000,,2013-07-06 12:01:00,
2013-07-06 04:11:00,41.0,38.0,-100.00,North,356,2.0,4.0,88,-99.99,,,-99.99,0.000000,,2013-07-06 12:11:00,
2013-07-06 04:22:00,41.0,38.0,-100.00,North,356,2.0,4.0,88,-99.99,,,-99.99,0.000000,,2013-07-06 12:22:00,
2013-07-06 04:33:00,41.0,38.0,-100.00,North,353,3.0,6.0,88,0.00,,,-99.99,0.000000,,2013-07-06 12:33:00,
2013-07-06 04:52:00,41.0,38.0,-100.00,North,353,3.0,6.0,88,0.00,,,-99.99,0.000000,,2013-07-06 12:52:00,
2013-07-06 05:01:00,41.0,38.0,-100.00,North,353,3.0,6.0,88,0.00,,,-99.99,0.000000,,2013-07-06 13:01:00,
2013-07-06 05:12:00,41.0,38.0,-100.00,North,353,3.0,6.0,88,0.00,,,-99.99,0.000000,,2013-07-06 13:12:00,
2013-07-06 05:22:00,41.0,38.0,-100.00,North,353,3.0,6.0,88,0.00,,,-99.99,0.000000,,2013-07-06 13:22:00,
2013-07-06 05:33:00,41.0,39.0,-100.00,NNE,14,1.0,4.0,93,0.03,,,0.02,1.000000,,2013-07-06 13:33:00,
2013-07-06 06:02:00,41.0,39.0,-100.00,NNE,14,1.0,4.0,93,0.03,,,0.02,1.000000,,2013-07-06 14:02:00,
2013-07-06 06:11:00,41.0,39.0,-100.00,NNE,14,1.0,4.0,93,0.03,,,0.02,1.000000,,2013-07-06 14:11:00,
2013-07-06 06:22:00,41.0,39.0,-100.00,NNE,14,1.0,4.0,93,0.03,,,0.02,1.000000,,2013-07-06 14:22:00,
2013-07-06 06:33:00,40.0,38.0,-100.00,North,356,1.0,2.0,93,-99.99,,,0.01,5.000000,,2013-07-06 14:33:00,
2013-07-06 06:53:00,40.0,38.0,-100.00,North,356,1.0,2.0,93,-99.99,,,0.01,5.000000,,2013-07-06 14:53:00,
2013-07-06 07:02:00,40.0,38.0,-100.00,North,356,1.0,2.0,93,-99.99,,,0.01,5.000000,,2013-07-06 15:02:00,
2013-07-06 07:12:00,40.0,38.0,-100.00,North,356,1.0,2.0,93,-99.99,,,0.01,5.000000,,2013-07-06 15:12:00,
2013-07-06 07:22:00,40.0,38.0,-100.00,North,356,1.0,2.0,93,-99.99,,,0.01,5.000000,,2013-07-06 15:22:00,
2013-07-06 07:33:00,41.0,40.0,-100.00,North,9,1.0,3.0,95,0.00,,,-99.99,17.000000,,2013-07-06 15:33:00,
2013-07-06 07:53:00,41.0,40.0,-100.00,North,9,1.0,3.0,95,0.00,,,-99.99,17.000000,,2013-07-06 15:53:00,
2013-07-06 08:05:00,41.0,40.0,-100.00,North,9,1.0,3.0,95,0.00,,,-99.99,17.000000,,2013-07-06 16:05:00,
2013-07-06 08:13:00,41.0,40.0,-100.00,North,9,1.0,3.0,95,0.00,,,-99.99,17.000000,,2013-07-06 16:13:00,
2013-07-06 08:22:00,41.0,40.0,-100.00,North,9,1.0,3.0,95,0.00,,,-99.99,17.000000,,2013-07-06 16:22:00,
2013-07-06 08:33:00,41.0,40.0,-100.00,NNE,30,0.0,2.0,95,-99.99,,,-99.99,63.000000,,2013-07-06 16:33:00,
2013-07-06 09:16:00,41.0,40.0,-100.00,NNE,30,0.0,2.0,95,-99.99,,,-99.99,63.000000,,2013-07-06 17:16:00,
2013-07-06 09:25:00,41.0,40.0,-100.00,NNE,30,0.0,2.0,95,-99.99,,,-99.99,63.000000,,2013-07-06 17:25:00,
2013-07-06 09:33:00,42.0,40.0,-100.00,East,88,1.0,3.0,91,-99.99,,,-99.99,140.000000,,2013-07-06 17:33:00,
2013-07-06 10:05:00,42.0,40.0,-100.00,East,88,1.0,3.0,91,-99.99,,,-99.99,140.000000,,2013-07-06 18:05:00,
2013-07-06 10:17:00,42.0,40.0,-100.00,East,88,1.0,3.0,91,-99.99,,,-99.99,140.000000,,2013-07-06 18:17:00,
2013-07-06 10:33:00,43.0,41.0,-100.00,ESE,103,1.0,2.0,92,0.00,,,-99.99,187.000000,,2013-07-06 18:33:00,
2013-07-06 11:07:00,43.0,41.0,-100.00,ESE,103,1.0,2.0,92,0.00,,,-99.99,187.000000,,2013-07-06 19:07:00,
2013-07-06 11:16:00,43.0,41.0,-100.00,ESE,103,1.0,2.0,92,0.00,,,-99.99,187.000000,,2013-07-06 19:16:00,
2013-07-06 11:25:00,43.0,41.0,-100.00,ESE,103,1.0,2.0,92,0.00,,,-99.99,187.000000,,2013-07-06 19:25:00,
2013-07-06 12:03:00,43.0,41.0,-100.00,ESE,113,2.0,3.0,91,0.00,,,-99.99,233.000000,,2013-07-06 20:03:00,
2013-07-06 13:07:00,45.0,41.0,-100.00,South,171,1.0,2.0,87,-99.99,,,-99.99,297.000000,,2013-07-06 21:07:00,
2013-07-06 13:14:00,45.0,41.0,-100.00,South,171,1.0,2.0,87,-99.99,,,-99.99,297.000000,,2013-07-06 21:14:00,
2013-07-06 14:25:00,47.0,41.0,-100.00,SSE,155,1.0,3.0,78,0.00,,,-99.99,434.000000,,2013-07-06 22:25:00,
2013-07-06 14:33:00,46.0,40.0,-100.00,East,93,0.0,3.0,79,0.00,,,-99.99,217.000000,,2013-07-06 22:33:00,
2013-07-06 15:07:00,46.0,40.0,-100.00,East,93,0.0,3.0,79,0.00,,,-99.99,217.000000,,2013-07-06 23:07:00,
2013-07-06 16:07:00,45.0,41.0,-100.00,East,97,0.0,1.0,85,0.02,,,0.00,161.000000,,2013-07-07 00:07:00,
2013-07-06 16:17:00,45.0,41.0,-100.00,East,97,0.0,1.0,85,0.02,,,0.00,161.000000,,2013-07-07 00:17:00,
2013-07-06 16:23:00,45.0,41.0,-100.00,East,97,0.0,1.0,85,0.02,,,0.00,161.000000,,2013-07-07 00:23:00,
2013-07-06 17:06:00,45.0,41.0,-100.00,SW,234,2.0,4.0,85,-99.99,,,0.00,247.000000,,2013-07-07 01:06:00,
2013-07-06 17:15:00,45.0,41.0,-100.00,SW,234,2.0,4.0,85,-99.99,,,0.00,247.000000,,2013-07-07 01:15:00,
2013-07-06 18:05:00,47.0,43.0,-100.00,SW,230,2.0,5.0,85,0.00,,,-99.99,250.000000,,2013-07-07 02:05:00,
2013-07-06 18:23:00,47.0,43.0,-100.00,SW,230,2.0,5.0,85,0.00,,,-99.99,250.000000,,2013-07-07 02:23:00,
2013-07-06 19:05:00,46.0,42.0,-100.00,WNW,300,2.0,5.0,85,0.01,,,-99.99,121.000000,,2013-07-07 03:05:00,
2013-07-06 19:23:00,46.0,42.0,-100.00,WNW,300,2.0,5.0,85,0.01,,,-99.99,121.000000,,2013-07-07 03:23:00,
2013-07-06 19:31:00,46.0,42.0,-100.00,WNW,300,2.0,5.0,85,0.01,,,-99.99,121.000000,,2013-07-07 03:31:00,
2013-07-06 20:01:00,45.0,39.0,-100.00,North,7,1.0,5.0,79,-99.99,,,-99.99,83.000000,,2013-07-07 04:01:00,
2013-07-06 20:11:00,45.0,39.0,-100.00,North,7,1.0,5.0,79,-99.99,,,-99.99,83.000000,,2013-07-07 04:11:00,
2013-07-06 20:21:00,45.0,39.0,-100.00,North,7,1.0,5.0,79,-99.99,,,-99.99,83.000000,,2013-07-07 04:21:00,
2013-07-06 20:31:00,45.0,39.0,-100.00,North,7,1.0,5.0,79,-99.99,,,-99.99,83.000000,,2013-07-07 04:31:00,
2013-07-06 20:51:00,45.0,40.0,-100.00,North,352,2.0,2.0,83,0.00,,,0.00,49.000000,,2013-07-07 04:51:00,
2013-07-06 21:01:00,45.0,40.0,-100.00,North,352,2.0,2.0,83,0.00,,,0.00,49.000000,,2013-07-07 05:01:00,
2013-07-06 21:11:00,45.0,40.0,-100.00,North,352,2.0,2.0,83,0.00,,,0.00,49.000000,,2013-07-07 05:11:00,
2013-07-06 21:21:00,45.0,40.0,-100.00,North,352,2.0,2.0,83,0.00,,,0.00,49.000000,,2013-07-07 05:21:00,
2013-07-06 21:31:00,45.0,40.0,-100.00,North,352,2.0,2.0,83,0.00,,,0.00,49.000000,,2013-07-07 05:31:00,
2013-07-06 21:51:00,45.0,40.0,-100.00,North,8,1.0,3.0,84,0.00,,,-99.99,32.000000,,2013-07-07 05:51:00,
2013-07-06 22:01:00,45.0,40.0,-100.00,North,8,1.0,3.0,84,0.00,,,-99.99,32.000000,,2013-07-07 06:01:00,
2013-07-06 22:11:00,45.0,40.0,-100.00,North,8,1.0,3.0,84,0.00,,,-99.99,32.000000,,2013-07-07 06:11:00,
2013-07-06 22:21:00,45.0,40.0,-100.00,North,8,1.0,3.0,84,0.00,,,-99.99,32.000000,,2013-07-07 06:21:00,
2013-07-06 22:32:00,45.0,40.0,-100.00,North,8,1.0,3.0,84,0.00,,,-99.99,32.000000,,2013-07-07 06:32:00,
2013-07-06 22:33:00,44.0,40.0,-100.00,North,10,1.0,4.0,86,0.01,,,0.01,12.000000,,2013-07-07 06:33:00,
2013-07-06 22:52:00,44.0,40.0,-100.00,North,10,1.0,4.0,86,0.01,,,0.01,12.000000,,2013-07-07 06:52:00,
2013-07-06 23:01:00,44.0,40.0,-100.00,North,10,1.0,4.0,86,0.01,,,0.01,12.000000,,2013-07-07 07:01:00,
2013-07-06 23:11:00,44.0,40.0,-100.00,North,10,1.0,4.0,86,0.01,,,0.01,12.000000,,2013-07-07 07:11:00,
2013-07-06 23:22:00,44.0,40.0,-100.00,North,10,1.0,4.0,86,0.01,,,0.01,12.000000,,2013-07-07 07:22:00,
2013-07-06 23:33:00,44.0,39.0,-100.00,NNW,346,1.0,2.0,84,-99.99,,,0.00,2.000000,,2013-07-07 07:33:00,